Wind_Speed
24 22 20 19 18 17 17 17 16 17 17 18 18 17 16 14 14 15 15 16 17 18 18 18 19 18 17 16 15 16 16 16 16 16 16 15 17 18 17 20 20 17 17 19 22 25 25 24 22 19 17 15 14 15 16 18 20 22 23 23 23 22
22 20 18 17 17 16 16 16 16 16 17 17 16 15 15 15 14 14 14 15 16 17 17 17 18 17 16 15 15 15 16 17 16 16 17 16 17 18 18 21 21 18 16 20 23 26 27 25 24 21 18 16 15 15 16 18 20 21 22 22 23 23
20 18 16 16 15 15 16 16 16 16 16 16 15 15 15 15 14 14 14 14 15 16 16 16 16 16 16 15 15 15 16 17 17 17 18 18 17 17 18 20 23 22 17 19 24 27 28 26 24 22 19 17 16 15 16 17 19 21 22 22 23 23
19 17 16 15 15 15 15 15 16 16 16 16 15 14 14 14 14 14 14 14 14 14 14 15 14 14 15 15 14 15 15 16 17 18 19 20 19 18 18 19 23 26 20 18 24 28 28 27 25 23 20 18 17 16 16 17 19 20 22 23 23 23
19 17 16 16 16 16 15 16 16 16 15 15 15 14 14 14 14 14 14 14 13 13 13 13 13 13 13 14 14 14 14 15 17 19 20 21 21 20 21 19 19 25 23 20 24 28 29 28 26 24 22 20 18 16 16 17 19 20 22 23 23 23
19 17 16 16 16 16 16 17 17 16 15 15 15 14 14 14 15 15 15 14 13 13 13 13 13 13 13 13 13 14 14 14 16 18 20 21 22 22 22 21 19 23 25 22 24 29 30 30 27 25 23 21 19 17 17 17 18 20 21 22 23 23
20 18 17 17 17 17 17 18 17 16 16 16 15 15 14 15 15 16 15 14 13 13 13 13 13 13 13 13 13 13 14 15 16 18 19 20 21 22 23 23 22 24 28 25 24 29 30 30 29 27 25 23 21 19 18 18 19 20 20 22 23 23
20 19 19 18 18 18 18 18 18 17 17 16 16 16 16 16 16 16 16 15 15 15 14 14 14 15 15 14 14 13 14 15 17 18 18 19 20 21 22 24 22 23 28 28 25 28 30 31 30 29 27 25 23 21 20 19 19 20 21 22 23 24
20 19 19 19 18 19 19 19 18 18 17 17 17 18 18 17 17 18 17 17 17 16 16 16 16 16 16 16 15 14 14 15 16 17 17 17 18 19 21 23 22 20 25 28 26 27 29 31 31 30 28 27 25 23 22 21 20 21 22 23 23 24
19 19 19 19 19 19 20 20 19 18 18 18 19 19 19 18 18 19 19 19 19 18 18 18 17 17 18 19 17 15 14 14 15 16 16 16 16 18 19 22 22 19 22 26 27 27 28 30 32 31 30 28 27 25 23 22 21 21 22 22 23 24
18 18 18 19 19 20 20 20 19 19 19 19 20 20 20 20 20 20 21 22 22 21 20 20 18 18 20 20 17 15 15 15 15 15 16 15 16 17 18 19 21 21 21 24 27 28 28 29 31 32 32 30 28 27 25 24 23 22 22 22 22 23
18 18 18 18 19 20 21 21 20 20 20 20 21 21 21 21 21 21 22 23 23 23 22 22 20 20 22 21 18 16 16 16 14 14 15 15 16 17 18 18 20 21 22 23 27 28 28 28 30 32 33 33 30 29 28 26 25 24 24 23 22 22
19 19 19 19 20 20 21 21 21 20 20 20 21 21 22 22 22 22 23 24 24 24 23 22 21 21 22 23 21 17 17 17 15 15 16 16 16 17 17 18 19 20 21 24 26 29 30 28 28 30 33 34 33 31 30 29 28 27 26 24 23 23
20 20 20 20 21 21 21 21 21 20 21 20 20 21 22 22 23 23 24 24 25 25 24 22 22 22 22 23 22 18 17 19 18 17 17 17 17 17 17 18 19 20 21 23 25 28 31 31 29 28 31 34 35 34 32 31 30 29 28 26 25 24
22 21 21 22 22 23 22 22 21 21 21 21 21 21 22 22 23 23 23 24 25 25 24 22 22 23 22 21 22 20 19 19 20 19 18 18 18 18 19 18 19 19 20 22 25 27 29 32 32 30 29 31 35 35 35 34 33 32 30 28 27 26
23 23 23 23 24 24 24 23 23 23 23 22 22 22 22 22 22 23 23 24 24 24 24 23 21 22 23 22 22 22 21 20 21 20 20 20 19 20 20 20 19 19 19 20 24 27 28 30 32 32 31 31 33 35 36 36 35 34 32 31 30 29
24 24 25 25 25 26 26 25 25 25 25 24 24 23 22 22 22 22 22 23 24 24 24 24 23 22 23 23 23 23 22 21 22 22 21 21 20 20 20 20 20 20 19 19 21 25 27 29 31 33 34 34 34 35 36 38 38 36 34 34 33 31
25 26 26 27 27 27 27 27 27 27 27 26 25 24 23 23 23 22 22 23 23 24 24 24 24 23 23 24 24 24 23 22 23 23 22 23 22 20 19 19 20 20 19 19 20 22 24 27 30 32 33 34 36 37 37 37 38 38 37 36 36 35
27 27 28 28 29 29 29 29 28 28 28 27 26 25 24 24 23 23 22 23 23 24 25 25 24 24 24 24 24 24 24 23 23 23 24 24 22 21 20 20 20 20 19 20 21 23 24 25 27 31 33 34 36 38 38 38 38 38 39 39 38 37
27 28 29 29 30 30 29 29 29 29 28 28 27 26 25 25 24 24 23 23 23 24 25 25 25 24 24 24 24 24 24 24 24 24 25 25 22 21 22 21 21 21 21 21 21 23 25 25 26 28 31 34 37 38 39 39 39 39 40 41 40 40
26 27 28 28 29 29 29 29 29 28 28 27 27 27 26 26 25 25 24 24 24 24 25 26 26 25 24 24 25 25 25 24 24 24 25 25 24 23 23 22 21 21 22 23 22 23 24 24 25 28 30 31 34 37 40 41 40 40 40 41 42 42
26 26 25 26 27 28 28 28 28 27 27 27 26 26 26 26 26 26 25 25 25 25 26 26 26 26 25 24 25 25 26 25 24 23 24 25 25 24 24 24 22 21 22 23 24 24 24 24 24 25 29 31 32 33 37 41 41 41 41 42 44 44
26 26 25 25 25 26 26 26 26 26 26 26 26 25 26 26 26 26 26 26 26 26 26 27 27 26 25 25 25 25 26 26 25 24 24 25 25 26 26 25 24 23 23 23 24 23 24 24 22 20 23 29 32 31 31 37 41 43 43 43 44 45
25 25 25 25 25 25 25 25 24 24 24 25 25 25 26 26 26 26 26 26 26 26 26 27 27 27 26 25 25 25 25 26 26 25 24 24 26 27 27 28 27 25 24 24 23 23 22 21 19 19 19 21 27 29 29 32 38 43 45 45 45 46
25 24 23 23 24 24 25 24 23 23 23 23 24 25 26 26 26 26 26 26 26 26 26 27 27 27 26 26 25 25 25 26 26 25 25 25 26 26 27 29 30 28 26 25 24 23 22 21 19 19 20 18 20 24 27 30 33 38 45 47 47 46
24 23 22 22 22 23 23 22 21 22 22 23 24 25 26 26 26 26 26 26 26 26 26 27 27 27 26 25 25 25 25 26 26 25 24 25 26 26 26 28 30 30 28 26 25 24 23 22 21 20 21 20 20 20 23 25 28 31 38 45 48 49
24 22 21 21 22 22 22 20 20 21 22 23 24 24 25 26 25 25 25 26 26 26 27 27 27 27 26 25 24 24 25 26 26 25 25 24 25 25 25 27 29 31 31 29 27 26 25 25 25 24 21 21 21 21 21 22 24 27 29 36 44 49
24 22 21 21 21 22 21 20 20 21 22 22 23 24 24 24 24 24 24 25 25 26 26 27 27 27 26 24 23 23 24 26 26 25 25 24 24 24 25 26 28 30 31 31 30 30 29 28 28 28 26 24 23 22 22 22 23 24 24 26 32 39
22 20 20 21 21 21 21 20 20 21 21 22 22 23 23 23 23 23 24 24 25 25 25 26 26 25 24 23 23 23 24 25 26 25 25 25 24 24 24 25 26 28 29 30 30 31 32 32 31 31 30 29 27 25 24 24 23 23 23 22 24 27
20 19 19 20 20 21 20 20 21 21 21 21 22 22 22 22 22 23 23 24 24 24 24 24 24 23 22 21 21 22 23 24 25 25 25 24 24 24 24 25 25 27 28 28 28 29 31 32 32 32 32 31 30 28 25 24 24 24 23 22 22 23
20 18 18 18 19 20 20 20 20 21 21 21 21 21 21 21 21 22 23 23 24 24 24 23 22 21 21 20 20 21 22 23 24 24 24 24 24 24 24 24 25 26 27 27 27 27 28 30 30 31 32 32 31 30 28 26 25 25 25 24 23 24
19 18 17 17 18 19 20 20 20 20 20 20 20 20 20 20 21 21 22 23 23 24 23 22 21 21 20 20 19 20 21 22 23 24 24 23 23 24 24 24 24 25 25 26 26 26 26 27 28 28 29 30 30 30 29 28 26 26 27 27 26 26
19 18 18 18 19 20 20 20 20 20 20 19 19 19 19 20 20 21 21 22 22 23 23 22 22 21 20 20 20 20 20 21 22 23 23 23 22 22 23 23 23 24 24 25 25 25 25 25 26 27 27 27 28 29 29 28 28 28 28 28 29 29
19 18 18 19 20 20 21 21 21 20 20 19 19 18 18 19 19 20 20 21 21 22 22 22 22 21 21 21 20 20 20 21 22 22 22 22 22 21 21 22 22 22 23 23 23 24 24 24 24 25 26 26 26 27 28 28 28 27 28 28 29 29
20 19 19 20 20 21 22 22 22 21 21 21 20 20 19 19 19 19 20 20 21 21 22 22 22 21 21 21 21 21 21 21 22 22 22 22 21 21 21 21 21 21 21 21 22 22 23 23 23 24 24 25 25 26 26 27 27 26 26 27 27 28
22 20 19 20 20 21 22 22 22 22 22 22 22 22 21 21 21 20 21 21 21 21 22 22 21 21 20 20 21 21 21 21 21 22 22 22 21 21 21 21 21 20 20 21 21 22 22 23 23 23 23 24 25 25 25 26 26 26 26 26 26 27
22 21 20 19 19 19 21 21 22 22 22 23 23 23 23 23 23 22 22 22 22 22 22 22 22 21 20 19 20 20 21 21 21 22 22 22 22 22 22 22 21 21 21 21 21 21 22 23 23 24 24 24 25 25 26 27 27 27 27 27 27 27
Wind_Direction
268 272 274 273 269 266 264 259 256 255 256 259 261 265 268 271 270 269 271 274 275 278 282 282 284 284 284 283 274 264 259 256 255 251 240 236 236 232 229 223 220 224 221 218 217 216 211 207 207 210 213 210 208 207 207 208 209 213 216 218 220 222
269 271 270 268 265 262 258 255 251 251 253 255 260 264 267 269 268 269 273 275 277 281 284 285 285 284 283 282 277 270 265 263 260 255 247 241 240 235 231 228 221 219 217 214 213 213 212 210 208 207 210 213 210 209 206 207 209 211 215 218 220 222
267 267 266 265 262 259 254 250 249 249 251 254 258 260 263 267 268 271 275 276 278 281 284 286 286 284 281 278 276 271 266 264 261 257 253 248 245 238 234 237 230 219 211 210 211 211 211 212 211 207 207 212 213 212 209 206 207 209 213 216 219 221
264 262 262 262 258 254 251 247 246 246 248 251 254 257 262 268 270 274 277 277 280 284 285 286 287 284 280 276 273 270 264 262 259 257 255 252 248 239 235 240 235 224 212 207 210 209 211 212 212 209 206 210 214 215 213 208 206 208 211 215 218 220
262 258 256 256 253 249 246 244 242 242 244 247 251 255 260 266 269 273 274 276 283 286 286 286 288 284 277 274 270 268 264 261 258 256 255 254 250 242 237 239 234 227 216 208 209 209 210 212 213 211 208 208 211 215 216 213 209 209 211 214 217 219
260 254 250 249 247 244 242 240 239 239 241 244 248 251 256 261 265 269 272 276 279 280 282 286 288 284 278 273 270 269 267 263 260 257 255 252 251 246 241 238 236 231 219 208 208 208 210 213 213 213 211 209 209 212 216 217 214 211 212 215 217 220
254 247 243 242 241 240 239 237 235 236 238 241 246 250 253 258 262 265 268 270 271 273 278 282 284 282 279 278 276 272 268 264 260 258 255 252 250 247 243 239 239 236 221 208 207 208 210 213 214 214 213 212 210 210 214 217 217 215 215 217 218 220
249 242 237 237 237 237 236 234 232 233 235 239 245 250 254 256 260 263 265 266 268 271 274 276 278 277 279 281 279 275 270 265 262 260 257 254 251 247 244 241 242 239 219 206 204 208 211 214 216 217 216 215 212 211 213 216 218 218 218 219 219 220
245 240 236 235 236 236 234 232 231 232 235 239 244 248 253 256 260 264 267 267 268 270 270 271 272 274 278 277 274 272 271 267 263 261 259 256 252 248 246 243 246 239 216 205 202 205 210 214 218 220 220 219 217 215 215 217 219 220 221 221 221 221
246 240 237 234 234 235 234 232 232 234 237 241 244 248 252 256 259 264 267 268 268 268 268 267 269 273 274 270 266 267 270 269 264 262 262 259 253 249 246 244 246 241 218 206 202 204 208 212 218 222 223 223 222 220 218 218 220 222 224 224 224 225
248 242 238 235 234 233 233 234 235 237 240 242 246 250 252 255 257 261 264 266 267 267 266 265 266 268 268 267 266 267 267 265 263 263 263 259 254 251 248 245 244 242 229 211 202 203 205 209 216 222 225 225 224 224 223 221 222 224 226 227 228 228
249 246 241 238 236 234 233 235 237 239 242 244 247 251 253 255 257 258 261 263 265 264 264 264 264 264 265 266 266 268 267 264 265 268 264 258 252 251 250 246 243 240 235 223 211 206 204 206 213 220 226 227 225 225 226 225 224 225 227 228 230 231
250 249 246 242 239 237 236 236 239 242 246 248 250 253 255 257 257 258 258 260 262 263 262 263 264 262 264 266 266 266 266 268 271 270 266 262 256 254 253 252 249 244 238 233 225 216 209 206 208 216 225 229 228 227 227 228 227 227 227 228 229 231
249 249 247 245 242 241 241 241 243 247 251 254 255 256 257 258 258 258 257 258 259 261 261 261 262 262 261 265 268 266 263 265 269 268 266 265 260 258 257 256 255 252 246 240 234 225 217 211 208 212 219 226 229 229 228 229 230 230 230 229 230 231
247 247 247 245 244 245 246 248 250 253 255 257 259 259 259 259 258 257 257 257 258 259 260 259 259 262 262 263 267 267 264 264 267 267 266 265 262 259 258 256 255 254 251 244 239 233 225 219 214 213 216 221 227 230 230 230 231 232 232 231 231 232
246 245 244 244 245 246 249 252 255 257 258 259 259 259 260 260 259 258 257 257 258 259 260 260 259 262 265 265 264 264 263 261 261 262 262 262 261 259 257 255 254 254 253 247 242 237 232 227 222 218 218 219 223 228 230 230 231 232 233 233 234 234
246 243 242 242 243 246 248 252 255 257 259 260 260 260 260 260 260 259 258 257 257 257 258 260 261 262 265 266 265 265 263 260 258 258 258 258 257 257 256 254 254 255 254 250 246 239 234 233 229 224 221 221 222 224 228 230 231 232 233 235 235 235
244 243 242 241 243 244 247 250 253 256 258 260 261 261 260 259 259 259 257 256 256 256 258 260 263 264 265 265 264 265 263 260 258 257 256 256 255 255 256 254 254 255 254 251 249 244 238 236 234 231 228 226 225 225 226 228 230 231 233 235 236 236
242 242 241 241 242 243 246 249 252 254 256 258 260 260 260 259 258 258 257 256 256 257 259 261 263 264 264 265 263 263 262 259 257 255 255 255 254 256 257 255 253 254 254 252 249 245 241 239 237 234 233 233 232 229 227 226 228 229 231 234 237 238
244 243 242 242 243 244 246 249 251 253 255 256 258 259 259 258 258 257 257 257 257 258 260 262 263 264 263 264 263 262 261 259 256 254 253 254 253 254 256 253 251 251 253 254 253 248 245 244 241 236 233 235 236 235 232 228 226 227 229 231 234 237
249 247 245 245 246 246 247 249 250 252 253 254 256 257 257 258 258 258 258 258 258 259 261 262 263 263 263 263 263 262 262 260 258 255 254 254 251 250 252 253 251 251 251 253 253 252 249 248 246 241 236 235 237 237 235 232 228 226 227 229 232 235
256 254 251 250 248 248 248 248 249 250 252 252 253 254 256 257 257 258 258 258 258 259 261 262 263 264 264 263 262 261 262 261 259 257 256 254 251 248 250 252 252 251 251 251 252 254 254 253 253 248 243 241 242 240 236 233 231 229 228 229 231 233
260 259 257 256 254 252 251 250 250 251 252 252 251 252 254 256 257 258 258 258 259 260 261 262 264 265 265 264 262 260 260 260 259 257 255 255 251 247 246 249 249 248 250 251 252 255 257 258 260 256 248 244 244 245 241 234 231 230 231 230 230 232
263 263 262 262 261 260 258 255 254 254 254 253 253 253 255 256 257 258 258 259 259 260 261 263 264 266 266 265 263 260 259 259 258 256 254 254 251 247 245 246 247 247 249 250 252 253 254 256 260 258 254 247 242 243 245 242 236 232 232 232 231 231
267 268 267 266 265 263 261 260 258 257 255 255 256 257 258 259 260 260 260 260 261 262 262 263 264 265 266 265 263 261 259 258 257 256 254 253 253 250 246 245 247 247 248 250 250 250 251 254 259 259 257 252 245 242 242 244 244 240 236 232 231 230
271 271 269 267 264 262 261 260 259 258 257 257 258 258 260 262 263 264 264 264 265 265 264 264 264 264 264 264 262 260 259 258 257 255 253 251 252 252 250 248 247 247 248 250 249 247 247 250 254 256 255 251 248 247 244 242 243 244 242 237 234 231
270 268 265 262 261 260 260 260 259 258 258 259 259 259 260 262 264 265 266 266 266 266 265 264 264 263 263 261 260 259 258 258 258 256 253 251 250 251 251 251 250 249 249 249 251 250 248 248 250 251 253 251 249 250 249 245 242 243 245 243 239 236
267 264 261 259 259 259 260 260 260 260 260 261 262 262 262 263 265 266 267 266 266 266 266 265 264 263 262 260 257 255 255 256 257 256 254 251 249 249 250 250 252 253 252 251 251 251 250 250 251 252 253 254 256 256 252 248 245 243 244 245 244 242
263 259 257 256 256 258 260 261 261 261 262 263 264 265 265 266 268 268 268 267 266 266 265 264 263 262 261 259 256 253 252 253 255 255 254 252 250 248 248 248 249 252 254 253 251 250 250 250 251 253 253 254 257 260 256 250 244 239 240 243 245 247
257 254 252 252 253 256 258 260 261 262 263 264 265 266 267 268 269 270 270 269 267 265 263 261 261 260 259 257 255 252 251 251 253 254 253 252 251 249 248 248 248 250 252 253 252 250 250 250 250 251 252 253 255 257 256 253 248 242 240 242 243 246
253 251 250 251 253 255 257 259 261 262 263 264 265 267 268 269 270 271 271 270 268 265 261 258 257 257 257 256 253 251 250 250 251 252 252 251 251 250 249 248 248 249 251 253 253 251 250 250 250 250 250 251 252 253 253 252 251 248 247 247 245 245
253 253 252 252 254 256 258 259 261 262 263 264 264 266 267 268 269 270 271 271 271 268 264 259 255 254 254 253 251 250 249 250 251 252 252 251 250 249 249 249 249 249 250 252 253 253 251 251 251 251 250 250 250 251 251 251 250 250 250 249 248 247
257 258 257 256 256 257 259 260 261 263 264 265 264 264 265 266 267 268 270 272 273 273 271 266 261 256 254 252 250 248 248 250 252 253 254 253 251 249 249 249 249 249 250 250 252 253 253 251 251 251 251 251 251 251 251 251 250 249 249 250 249 248
261 263 263 261 259 258 260 261 263 265 267 268 267 266 265 265 267 268 270 273 275 276 276 275 271 266 261 257 254 250 247 246 248 251 254 254 253 251 249 249 248 249 249 250 250 252 253 252 250 251 251 251 251 251 252 252 252 250 249 249 249 248
264 267 268 267 264 262 262 263 265 267 268 269 270 269 267 266 266 267 268 271 275 277 278 278 278 276 273 268 264 259 253 249 247 248 250 253 254 254 252 250 248 247 247 248 248 249 251 252 251 250 250 250 250 250 251 252 253 252 251 249 248 248
265 269 271 270 268 267 266 266 266 268 269 270 271 271 271 269 267 267 267 268 270 274 276 277 278 279 279 278 275 271 265 259 253 250 249 250 252 253 253 252 251 249 248 247 247 247 247 250 252 252 251 251 251 251 251 252 253 253 253 252 251 250
264 267 269 269 268 267 267 267 268 269 271 274 275 276 276 276 274 272 270 269 269 271 274 276 277 277 278 279 279 278 274 269 263 257 254 252 252 252 252 251 250 249 248 247 246 245 246 246 248 250 252 251 251 251 252 252 252 253 253 254 254 253
Height
5815 5816 5817 5817 5817 5818 5818 5818 5818 5818 5818 5818 5818 5818 5818 5819 5820 5821 5821 5821 5821 5821 5821 5821 5821 5821 5821 5821 5821 5821 5821 5821 5822 5822 5823 5824 5825 5825 5825 5825 5826 5828 5829 5830 5831 5833 5834 5836 5838 5840 5841 5841 5842 5843 5844 5845 5846 5848 5850 5852 5854 5856
5813 5814 5814 5815 5815 5815 5816 5816 5816 5816 5816 5816 5816 5817 5817 5818 5819 5819 5820 5820 5820 5820 5820 5819 5819 5819 5819 5819 5819 5819 5819 5820 5820 5820 5821 5821 5822 5823 5824 5824 5824 5825 5827 5828 5829 5831 5832 5834 5836 5838 5839 5840 5840 5841 5842 5843 5845 5846 5848 5850 5852 5854
5811 5811 5812 5812 5812 5813 5813 5813 5814 5814 5814 5815 5815 5816 5816 5816 5817 5817 5818 5818 5818 5818 5818 5818 5818 5817 5817 5817 5817 5817 5817 5818 5818 5818 5819 5819 5820 5821 5822 5822 5822 5823 5824 5826 5827 5829 5830 5832 5834 5836 5837 5838 5839 5840 5841 5842 5843 5844 5846 5848 5850 5852
5808 5809 5809 5810 5810 5810 5811 5811 5812 5812 5813 5813 5813 5814 5814 5814 5815 5815 5816 5816 5817 5817 5817 5816 5816 5816 5815 5815 5815 5815 5815 5816 5816 5816 5817 5817 5818 5819 5820 5820 5820 5821 5822 5823 5825 5827 5828 5830 5832 5834 5835 5837 5838 5838 5839 5840 5841 5842 5844 5846 5848 5849
5806 5806 5807 5807 5808 5808 5809 5809 5810 5810 5811 5811 5812 5812 5812 5812 5813 5814 5814 5814 5815 5815 5815 5815 5814 5814 5814 5814 5813 5813 5814 5814 5814 5814 5814 5815 5815 5816 5818 5818 5818 5818 5820 5822 5823 5825 5826 5828 5830 5832 5834 5835 5836 5837 5838 5839 5840 5841 5842 5844 5845 5847
5803 5804 5804 5805 5805 5806 5807 5807 5808 5808 5809 5810 5810 5810 5810 5811 5811 5812 5812 5813 5813 5813 5813 5813 5813 5813 5812 5812 5812 5812 5812 5812 5812 5812 5812 5813 5813 5814 5815 5817 5816 5817 5818 5820 5821 5822 5824 5826 5827 5830 5831 5833 5834 5835 5836 5837 5838 5839 5840 5842 5844 5845
5800 5801 5802 5802 5803 5804 5804 5805 5806 5806 5807 5808 5808 5808 5809 5809 5809 5810 5810 5811 5812 5811 5811 5811 5811 5811 5810 5810 5810 5810 5810 5810 5810 5810 5810 5810 5811 5811 5813 5814 5815 5814 5816 5818 5819 5820 5822 5823 5825 5827 5829 5831 5832 5833 5834 5836 5837 5838 5839 5840 5842 5843
5797 5798 5799 5800 5800 5801 5802 5803 5804 5804 5805 5805 5806 5806 5806 5807 5807 5807 5808 5809 5809 5809 5810 5810 5810 5809 5809 5808 5808 5808 5808 5808 5808 5808 5808 5809 5809 5810 5810 5812 5813 5812 5813 5815 5817 5818 5820 5821 5823 5824 5826 5828 5830 5831 5832 5834 5835 5836 5837 5839 5840 5841
5795 5796 5796 5797 5798 5799 5800 5800 5801 5802 5802 5803 5804 5804 5804 5805 5805 5805 5806 5807 5807 5807 5808 5808 5808 5807 5807 5806 5806 5806 5806 5806 5807 5807 5807 5807 5807 5808 5809 5810 5811 5811 5811 5813 5815 5816 5818 5819 5820 5822 5824 5826 5828 5830 5831 5832 5833 5834 5836 5837 5838 5839
5792 5793 5794 5795 5795 5796 5797 5798 5799 5799 5800 5801 5801 5802 5802 5803 5803 5803 5803 5804 5805 5805 5806 5805 5805 5805 5804 5803 5803 5804 5804 5804 5805 5805 5805 5805 5806 5806 5807 5808 5809 5811 5811 5811 5813 5815 5816 5818 5818 5819 5821 5823 5825 5827 5829 5830 5831 5832 5834 5835 5836 5838
5790 5791 5791 5792 5793 5794 5794 5795 5796 5797 5798 5799 5799 5799 5800 5800 5801 5801 5801 5802 5802 5803 5803 5803 5803 5802 5801 5799 5800 5802 5802 5802 5802 5803 5803 5803 5804 5804 5804 5805 5807 5808 5809 5810 5811 5813 5814 5816 5817 5817 5818 5820 5823 5825 5827 5828 5829 5830 5832 5833 5834 5836
5788 5789 5789 5790 5791 5791 5792 5793 5794 5795 5796 5797 5797 5797 5798 5798 5799 5799 5799 5799 5799 5800 5800 5800 5801 5800 5798 5797 5799 5801 5800 5800 5801 5801 5801 5801 5802 5802 5802 5803 5804 5805 5807 5808 5809 5810 5812 5813 5815 5816 5816 5817 5820 5822 5824 5826 5827 5828 5829 5830 5832 5833
5786 5787 5787 5788 5788 5789 5790 5791 5792 5793 5794 5795 5795 5795 5796 5796 5796 5797 5797 5797 5796 5796 5797 5797 5797 5797 5796 5795 5796 5799 5799 5798 5799 5799 5799 5800 5800 5800 5800 5801 5801 5802 5804 5805 5806 5808 5809 5811 5812 5814 5815 5815 5817 5819 5821 5823 5824 5826 5827 5828 5829 5831
5784 5784 5785 5785 5786 5786 5787 5788 5790 5791 5791 5792 5793 5793 5793 5794 5794 5794 5794 5794 5794 5793 5794 5795 5795 5794 5794 5794 5794 5797 5798 5797 5797 5798 5798 5799 5798 5799 5799 5799 5799 5800 5801 5802 5803 5805 5807 5809 5810 5811 5812 5813 5814 5816 5818 5820 5822 5823 5825 5826 5827 5828
5782 5782 5782 5783 5783 5784 5784 5785 5787 5788 5789 5789 5790 5790 5791 5791 5791 5792 5792 5791 5791 5791 5791 5792 5792 5792 5792 5793 5793 5795 5796 5795 5795 5796 5796 5797 5796 5796 5796 5797 5797 5798 5798 5799 5800 5802 5804 5806 5807 5809 5810 5811 5811 5813 5815 5817 5819 5821 5822 5824 5825 5826
5779 5779 5780 5780 5780 5781 5782 5783 5784 5785 5786 5786 5787 5787 5788 5788 5788 5789 5789 5789 5788 5788 5789 5789 5790 5790 5790 5791 5791 5792 5793 5793 5793 5793 5794 5793 5793 5793 5793 5794 5795 5795 5796 5796 5797 5799 5800 5802 5804 5806 5807 5808 5808 5810 5811 5813 5815 5817 5820 5822 5823 5824
5776 5777 5777 5778 5778 5779 5780 5781 5781 5782 5783 5783 5784 5784 5785 5785 5786 5786 5787 5787 5786 5786 5786 5787 5788 5788 5788 5787 5788 5788 5790 5791 5791 5791 5791 5790 5789 5790 5791 5792 5792 5793 5793 5794 5794 5795 5797 5799 5801 5803 5804 5805 5806 5806 5808 5810 5812 5814 5817 5818 5820 5821
5773 5774 5775 5775 5776 5777 5778 5778 5779 5780 5780 5781 5781 5782 5782 5782 5783 5783 5784 5784 5784 5784 5784 5784 5785 5785 5785 5785 5785 5785 5786 5787 5788 5788 5788 5787 5787 5788 5789 5789 5789 5790 5790 5791 5792 5792 5794 5796 5797 5799 5801 5802 5803 5803 5805 5807 5809 5811 5813 5815 5816 5818
5770 5771 5772 5773 5773 5774 5775 5776 5776 5777 5777 5778 5778 5779 5779 5779 5780 5781 5781 5782 5782 5782 5782 5782 5782 5782 5782 5782 5783 5783 5783 5784 5785 5785 5785 5784 5785 5786 5786 5787 5787 5787 5788 5789 5789 5790 5792 5793 5794 5795 5797 5798 5799 5800 5802 5803 5805 5807 5809 5811 5813 5815
5768 5768 5769 5770 5770 5771 5772 5773 5774 5774 5775 5775 5775 5776 5776 5776 5777 5778 5778 5779 5779 5779 5779 5779 5779 5780 5780 5780 5780 5780 5780 5781 5782 5782 5782 5782 5783 5784 5784 5784 5784 5785 5785 5786 5787 5788 5788 5789 5790 5792 5793 5795 5795 5797 5798 5800 5802 5803 5805 5807 5809 5811
5765 5765 5766 5767 5767 5768 5769 5770 5770 5771 5772 5772 5772 5773 5773 5773 5774 5774 5775 5776 5776 5776 5777 5777 5777 5777 5778 5778 5777 5778 5778 5778 5779 5779 5779 5779 5780 5782 5781 5781 5782 5783 5783 5784 5785 5785 5786 5786 5787 5788 5789 5791 5792 5793 5794 5796 5798 5800 5801 5803 5804 5806
5762 5762 5763 5764 5764 5765 5766 5767 5767 5768 5768 5769 5769 5770 5770 5770 5770 5771 5772 5772 5773 5774 5774 5774 5774 5775 5775 5775 5775 5775 5775 5775 5776 5776 5776 5776 5777 5778 5779 5779 5780 5781 5781 5782 5782 5782 5783 5784 5784 5785 5786 5787 5788 5789 5790 5792 5793 5795 5797 5799 5800 5802
5759 5759 5760 5761 5761 5762 5763 5764 5764 5765 5765 5766 5766 5767 5767 5767 5767 5768 5769 5769 5770 5771 5771 5771 5771 5772 5772 5772 5772 5772 5772 5772 5773 5773 5774 5774 5774 5775 5776 5777 5778 5779 5779 5779 5779 5780 5781 5781 5782 5782 5782 5783 5784 5785 5787 5788 5789 5791 5793 5795 5797 5799
5756 5756 5757 5758 5758 5759 5759 5760 5761 5762 5762 5763 5763 5763 5764 5764 5765 5765 5766 5766 5767 5768 5768 5768 5768 5769 5769 5769 5769 5769 5769 5769 5770 5770 5771 5771 5772 5773 5774 5774 5774 5775 5776 5777 5778 5778 5778 5779 5780 5780 5780 5780 5781 5782 5783 5784 5785 5787 5788 5791 5793 5795
5753 5754 5754 5755 5755 5756 5756 5757 5758 5759 5759 5760 5760 5760 5761 5761 5762 5762 5763 5763 5764 5764 5765 5765 5765 5766 5766 5766 5766 5766 5766 5766 5767 5768 5768 5769 5769 5770 5771 5771 5771 5771 5773 5774 5775 5776 5776 5776 5777 5777 5778 5778 5779 5780 5780 5781 5783 5783 5785 5787 5789 5791
5750 5751 5751 5752 5752 5752 5752 5754 5755 5755 5756 5756 5757 5758 5758 5758 5759 5759 5760 5760 5761 5761 5761 5762 5762 5762 5763 5763 5763 5763 5763 5763 5764 5764 5765 5766 5766 5766 5767 5768 5768 5768 5770 5771 5772 5773 5773 5773 5774 5774 5775 5776 5777 5777 5778 5779 5780 5781 5781 5783 5784 5786
5747 5748 5748 5748 5748 5749 5749 5751 5751 5752 5752 5753 5754 5754 5755 5756 5756 5756 5757 5757 5757 5758 5758 5758 5759 5759 5759 5760 5760 5760 5760 5760 5760 5761 5762 5763 5763 5763 5764 5765 5765 5765 5767 5768 5769 5770 5770 5771 5771 5772 5773 5773 5775 5775 5776 5777 5778 5778 5779 5780 5780 5781
5744 5745 5745 5745 5745 5746 5746 5747 5748 5749 5749 5750 5750 5751 5752 5752 5753 5753 5754 5754 5754 5754 5755 5755 5755 5756 5756 5756 5757 5757 5757 5757 5757 5758 5758 5759 5760 5761 5761 5762 5762 5762 5763 5765 5766 5767 5767 5768 5768 5769 5770 5771 5772 5773 5774 5774 5775 5776 5776 5777 5778 5778
5741 5741 5742 5742 5742 5743 5744 5744 5745 5746 5746 5747 5747 5748 5749 5749 5750 5750 5750 5750 5751 5751 5751 5752 5752 5752 5753 5753 5753 5754 5754 5755 5755 5755 5756 5756 5757 5758 5758 5759 5759 5760 5760 5761 5763 5763 5764 5765 5766 5766 5767 5768 5769 5770 5771 5772 5772 5773 5774 5774 5775 5775
5738 5738 5738 5739 5739 5740 5741 5741 5742 5743 5743 5744 5745 5745 5746 5746 5747 5747 5747 5748 5748 5748 5749 5749 5749 5749 5749 5750 5750 5751 5751 5752 5752 5752 5753 5753 5754 5755 5755 5756 5757 5757 5757 5758 5759 5760 5761 5762 5763 5763 5764 5765 5766 5767 5768 5769 5769 5770 5771 5772 5772 5773
5735 5736 5736 5736 5736 5737 5738 5738 5739 5740 5740 5741 5742 5743 5743 5744 5744 5744 5744 5745 5745 5746 5746 5746 5746 5746 5746 5747 5747 5748 5748 5749 5749 5749 5750 5751 5751 5752 5753 5753 5754 5754 5755 5755 5756 5757 5758 5759 5759 5760 5761 5762 5763 5764 5765 5766 5767 5767 5768 5769 5770 5771
5733 5733 5733 5733 5734 5734 5735 5735 5736 5737 5738 5739 5739 5740 5741 5741 5741 5741 5741 5742 5742 5743 5743 5743 5744 5744 5744 5744 5744 5745 5745 5746 5746 5747 5747 5748 5749 5749 5750 5750 5751 5751 5752 5752 5753 5754 5755 5756 5756 5757 5758 5759 5760 5760 5762 5763 5764 5765 5765 5766 5767 5768
5730 5731 5731 5731 5731 5731 5732 5732 5733 5734 5735 5736 5737 5737 5738 5738 5739 5739 5739 5739 5740 5740 5740 5741 5741 5741 5741 5742 5742 5743 5743 5743 5744 5744 5744 5745 5746 5746 5747 5747 5748 5748 5749 5749 5750 5750 5751 5752 5753 5754 5755 5755 5756 5757 5758 5759 5761 5762 5762 5763 5764 5765
5728 5728 5729 5729 5729 5729 5729 5730 5730 5731 5732 5733 5734 5734 5735 5735 5736 5736 5736 5736 5737 5737 5738 5738 5739 5739 5739 5740 5740 5740 5741 5741 5741 5742 5742 5742 5743 5743 5744 5744 5745 5745 5746 5746 5747 5747 5748 5749 5750 5751 5751 5752 5753 5754 5755 5756 5757 5758 5759 5760 5761 5762
5726 5726 5726 5727 5727 5727 5727 5727 5728 5728 5729 5730 5730 5731 5732 5732 5732 5733 5733 5733 5734 5734 5735 5735 5736 5737 5737 5738 5738 5738 5739 5739 5739 5739 5740 5740 5741 5741 5741 5742 5742 5743 5743 5744 5744 5745 5745 5746 5747 5747 5748 5749 5750 5751 5752 5753 5754 5755 5756 5757 5758 5759
5723 5724 5724 5724 5725 5725 5725 5725 5725 5726 5726 5727 5727 5728 5729 5729 5729 5730 5730 5730 5731 5731 5732 5733 5733 5734 5735 5735 5736 5736 5737 5737 5737 5737 5738 5738 5738 5739 5739 5739 5740 5740 5741 5741 5742 5742 5743 5743 5744 5744 5745 5746 5747 5748 5749 5750 5750 5751 5752 5753 5754 5755
5720 5721 5722 5722 5722 5723 5723 5723 5723 5723 5724 5724 5725 5726 5726 5726 5727 5727 5727 5728 5728 5728 5729 5729 5730 5731 5732 5733 5733 5734 5734 5735 5735 5735 5736 5736 5736 5736 5737 5737 5737 5738 5738 5739 5739 5740 5740 5741 5741 5741 5742 5743 5743 5744 5745 5746 5747 5748 5748 5749 5750 5751